Location: Newark
(43.5831°N, 21.3381°E)
Time: 02:39:27
(UTC+00:00)

ISS - Visible Passes

Search period start: 13 December 2019 00:00
Search period end: 23 December 2019 00:00
Orbit: 411 x 421 km, 51.6° (Epoch: 13 December)

Date Brightness Start Highest point End Pass type
(mag) Time Alt. Az. Time Alt. Az. Time Alt. Az.
14 Dec -0.2 15:52:56 10° WSW 15:54:17 12° SW 15:55:37 10° SSW visible
19 Dec -0.4 05:22:04 10° SSE 05:23:54 14° SE 05:25:46 10° E visible
21 Dec -2.0 05:20:09 10° SSW 05:23:13 36° SE 05:26:19 10° ENE visible
22 Dec -1.2 04:32:10 10° S 04:34:48 22° SE 04:37:25 10° E visible
